Regional Weather Roundup
Issued by NWS

Home | Current Version | Previous Version | Text Only | Print | Product List | Glossary On
Versions: 1 2 3 4 5 6 7 8 9 10 11 12 13 14 15 16 17 18 19 20 21 22 23 24 25 26 27 28 29 30 31 32 33 34 35 36 37 38 39 40 41 42 43 44 45 46 47 48 49 50
000
ASUS42 KTBW 281516
RWRFL
FLORIDA REGIONAL WEATHER ROUNDUP
NATIONAL WEATHER SERVICE TAMPA BAY RUSKIN FL
1100 AM EDT TUE APR 28 2015

NOTE: "FAIR" INDICATES FEW OR NO CLOUDS BELOW 12,000 FEET WITH NO
SIGNIFICANT WEATHER AND/OR OBSTRUCTIONS TO VISIBILITY.


FLZ001>010-012>015-112-114-115-281600-
PANHANDLE FLORIDA

CITY           SKY/WX    TMP DP  RH WIND       PRES   REMARKS
PENSACOLA      PTSUNNY   69  62  78 NE5       29.78F
PENSACOLA NAS  CLOUDY    71  64  78 N5        29.79R
MILTON NAS     PTSUNNY   69  62  78 E6        29.80S
CRESTVIEW      CLOUDY    69  62  78 E5        29.81F
DUKE FIELD     PTSUNNY   69  62  80 E7        29.78F
VALPARAISO     PTSUNNY   70  64  81 NE6       29.79F
MARY ESTHER    MOSUNNY   70  62  75 E3        29.77F
TRI COUNTY     CLOUDY    68  64  87 VRB6      29.83R
PANAMA CITY    CLOUDY    70  65  84 NE8       29.79R
TYNDALL AFB    CLOUDY    71  67  88 NE5       29.80R
APALACHICOLA   CLOUDY    77  68  73 NE8       29.80R

STATION/POSITION SKY/WX   TEMP    WIND        PRES    WAVE   SWELL
                          AIR SEA DIR/SP/G            HT/PER HT/PER
                          (F)     (DEG/KT/KT) (MB)    (FT/S) (FT/S)
30.1N   87.6W              69 73   50/ 10/ 12 1008.1R   4/ 8   3/ 8
29.2N   88.2W              75 76  120/  8/ 12 1008.9R   5/ 7   5/ 7
28.8N   86.0W              75 76  130/ 17/ 21 1007.7R   5/ 5
PANAMA CITY BEAC           68 74   40/  7/ 10 1008.3R
CAPE SAN BLAS    NOT AVBL
TOWER C                    73     120/  7/  8 1008.7R
28.5N   84.5W              73 75  120/ 25/ 29 1005.6F   3/ 4   2/ 7

$$
FLZ011-016>038-118-127-128-134-139-239-281600-
NORTH FLORIDA

CITY           SKY/WX    TMP DP  RH WIND       PRES   REMARKS
MARIANNA       CLOUDY    68  65  90 E13       29.82R
TALLAHASSEE    CLOUDY    72  66  81 E15       29.82R
PERRY          CLOUDY    68  67  95 E13G18    29.83F FOG
CROSS CITY       N/A     70  67  90 VRB6      29.80F
LAKE CITY      PTSUNNY   64  63  94 NE5       29.87S
GAINESVILLE    CLOUDY    68  65  90 SE5       29.86R
MAYPORT NAS    CLOUDY    68  62  81 NE15      29.88S
JACKSONVILLE   LGT RAIN  66  61  84 E12       29.88F
JAX NAS        LGT RAIN  71  62  73 NE13      29.90R
JAX CRAIG      CLOUDY    68  61  78 NE13      29.89R
JAX CECIL      PTSUNNY   68  64  88 N6        29.89R
FERNANDINA BEA CLOUDY    72  64  78 E8        29.88F
ST AUGUSTINE   LGT RAIN  71  65  81 E8        29.88F

STATION/POSITION SKY/WX   TEMP    WIND        PRES    WAVE   SWELL
                          AIR SEA DIR/SP/G            HT/PER HT/PER
                          (F)     (DEG/KT/KT) (MB)    (FT/S) (FT/S)
SHELL POINT                69      50/  6/ 15   N/A
KEATON BEACH               69      70/ 10/ 11 1010.1R
CEDAR KEY                  71     170/ 21/ 23 1010.2F
FERNANDINA                 66 71   80/  4/  8 1011.8R
30.7N   81.3W                 70                N/A     3/ 4
MAYPORT                    68 69   50/ 15/ 19 1012.1R
31.4N   80.9W              68 69   60/ 16/ 17 1013.3F   2/ 7   2/ 7
ST AUGUSTINE               71 69  120/ 11/ 12 1012.1F

$$
FLZ040-043>046-052-053-057-058-063-144-281600-
INTERIOR CENTRAL FLORIDA

CITY           SKY/WX    TMP DP  RH WIND       PRES   REMARKS
OCALA          PTSUNNY   70  66  88 SE5       29.85F
THE VILLAGES     N/A     70  70 100 S15       29.74F
LEESBURG       CLOUDY    71  70  96 S10       29.87F
SANFORD        CLOUDY    72  70  93 SW6       29.87F
ORLANDO EXEC   LGT RAIN  72  70  93 W6        29.88S FOG
ORLANDO INTL   LGT RAIN  73  71  93 NW9       29.88S FOG
KISSIMMEE      RAIN      72  72 100 NW10      29.89S FOG
WINTER HAVEN   LGT RAIN  70  67  90 N12       29.90S
LAKELAND       RAIN      68  66  94 N10       29.89F
BARTOW         DRIZZLE   68  68 100 N8        29.89F
OKEECHOBEE     HVY RAIN  70  70 100 N8        29.83S

$$
FLZ041-047-054-059-064-141-147-281600-
EAST CENTRAL FLORIDA

CITY           SKY/WX    TMP DP  RH WIND       PRES   REMARKS
ORMOND BEACH   LGT RAIN  72  68  88 CALM      29.87R FOG
DAYTONA BEACH  LGT RAIN  72  70  93 NW6       29.87F
DELAND           N/A     70  68  94 W3        29.87F
NEW SMYRNA BEA LGT RAIN  72  72 100 CALM      29.86F
JFK SPACE CTR  CLOUDY    76  69  78 N5        29.84S
TITUSVILLE     CLOUDY    73  73 100 N6        29.88R
CAPE CANAVERAL CLOUDY    77  71  82 NE7       29.85R
PATRICK AFB    DRIZZLE   78  73  86 N8        29.84F
MELBOURNE      LGT RAIN  77  74  90 NW9       29.84S FOG
VERO BEACH     HVY RAIN  72  70  93 CALM      29.84R VSB 1/4
FT PIERCE      RAIN      74  72  93 N10       29.81S FOG
STUART         MOSUNNY   77  72  83 N7        29.81F FOG

STATION/POSITION SKY/WX   TEMP    WIND        PRES    WAVE   SWELL
                          AIR SEA DIR/SP/G            HT/PER HT/PER
                          (F)     (DEG/KT/KT) (MB)    (FT/S) (FT/S)
28.5N   80.2W              75 76   90/  8/ 10 1010.7F
28.9N   78.5W              74 79   50/ 12/ 16 1011.4R
TRIDENT PIER               77 77   20/  6/  8 1011.4R
28.4N   80.5W                 78                N/A     1/ 3
27.5N   80.2W                 77                N/A     2/12

$$
FLZ050-056-061-142-242-148-248-149-249-151-251-155-255-
160-260-281600-
WEST CENTRAL FLORIDA

CITY           SKY/WX    TMP DP  RH WIND       PRES   REMARKS
CRYSTAL RIVER  LGT RAIN  68  66  94 SE6       29.85F
INVERNESS      RAIN     N/A N/A N/A S12       29.86F
BROOKSVILLE    RAIN      69  67  93 SE9       29.90F FOG
CLEARWATER     HVY RAIN  69  67  93 N10G21    29.91R FOG
TAMPA INTL     LGT RAIN  70  67  90 N6        29.92R FOG
TAMPA EXEC       N/A    N/A N/A N/A N3        29.90
PLANT CITY     RAIN      70  68  94 NE6       29.91F
MACDILL AFB    RAIN      68  68  99 NE9       29.90R FOG
PETER O KNIGHT HVY RAIN  70  68  94 N3        29.92R
ST PETERSBURG  LGT RAIN  71  68  90 N16       29.89R FOG
SARASOTA       RAIN      68  65  90 NE20G29   29.86R FOG
VENICE         LGT RAIN  72  72 100 NE17      29.86R

STATION/POSITION SKY/WX   TEMP    WIND        PRES    WAVE   SWELL
                          AIR SEA DIR/SP/G            HT/PER HT/PER
                          (F)     (DEG/KT/KT) (MB)    (FT/S) (FT/S)
CEDAR KEY                  71     170/ 21/ 23 1010.2F
28.5N   84.5W              73 75  120/ 25/ 29 1005.6F   3/ 4   2/ 7
27.3N   84.2W                 77                N/A     6/ 5
CLEARWATER BEACH           69 79   40/  8/ 16 1012.2R
MIDDLE TAMPA BAY           72      30/ 29/ 35 1010.4R
VENICE                     72 82   30/ 14/ 17 1010.3R

$$
FLZ066-069-070-075>078-162-262-165-265-281600-
SOUTHWEST FLORIDA AND KEYS

CITY           SKY/WX    TMP DP  RH WIND       PRES   REMARKS
PUNTA GORDA    CLOUDY    73  71  93 N9        29.86R
FT MYERS       CLOUDY    80  73  79 S5        29.80R
SOUTHWEST INTL CLOUDY    80  73  79 SW7       29.81R
NAPLES         CLOUDY    82  75  79 S7        29.81R
MARCO ISLAND   CLOUDY    82  73  74 SW9       29.81S
IMMOKALEE      MOSUNNY  N/A N/A N/A S7        29.81S
MARATHON       CLOUDY    87  77  72 S9        29.81S HX  99
KEY WEST NAS   PTSUNNY   87  77  72 S20       29.80S HX  99
KEY WEST INTL  MOSUNNY   85  77  77 S20       29.80S HX  95

STATION/POSITION SKY/WX   TEMP    WIND        PRES    WAVE   SWELL
                          AIR SEA DIR/SP/G            HT/PER HT/PER
                          (F)     (DEG/KT/KT) (MB)    (FT/S) (FT/S)
VENICE                     72 82   30/ 14/ 17 1010.3R
NAPLES                     80 84  160/  4/  7 1008.9R
26.0N   85.6W              74 79   30/ 17/ 21 1008.9F   6/ 7   2/11
DRY TORTUGAS               82     170/ 20/ 22 1007.8F
NW FL BAY                  85     210/ 14/ 17 1009.6
SAND KEY                   82     180/ 17/ 20 1009.5R
SOMBRERO KEY               83     190/ 18/ 19 1009.8F
LONG KEY                   83 87  220/ 15/ 17 1010.4R
MOLASSES REEF              82 82  220/ 17/ 18 1009.5S

$$
FLZ067-068-071>074-168-172>174-281600-
SOUTHEAST FLORIDA

CITY           SKY/WX    TMP DP  RH WIND       PRES   REMARKS
W PALM BEACH   CLOUDY    82  74  76 S12       29.80F
FT LAUDER-EXEC CLOUDY    82  76  81 SE12      29.80S
FT LAUDERDALE  CLOUDY    84  77  79 SE16      29.80S
POMPANO BEACH  CLOUDY    83  76  79 SE12      29.80S
PEMBROKE PINES CLOUDY    86  76  71 SE10      29.80F HX  96
OPA LOCKA      CLOUDY    86  75  69 SE12      29.80F HX  95
MIAMI          CLOUDY    86  75  69 SE8       29.80F HX  95
WEST KENDALL   CLOUDY    86  75  69 S6        29.80S HX  95
HOMESTEAD      CLOUDY    87  74  64 S16       29.80S HX  96

STATION/POSITION SKY/WX   TEMP    WIND        PRES    WAVE   SWELL
                          AIR SEA DIR/SP/G            HT/PER HT/PER
                          (F)     (DEG/KT/KT) (MB)    (FT/S) (FT/S)
PORT EVERGLADES            81     130/  7/ 11 1009.3R
VIRGINIA KEY               82 84  120/  6/  9 1009.1R



USA.gov is the U.S. government's official web portal to all federal, state and local government web resources and services.